Location: Ch�risy
(50.2331°N, 2.9131°E)
Time: 23:50:25
(UTC+00:00)

Iridium 4 Rocket - Pass Details

Date: 17 January 2021
Orbit: 583 x 906 km, 86.9° (Epoch: 01 March)

Event Time Altitude Azimuth Distance (km) Brightness Sun altitude
Rises 19:07:06 0° 356° (N) 3,537 7.0 -26.5°
Reaches altitude 10° 19:09:37 10° 357° (N) 2,576 6.2 -26.9°
Maximum altitude 19:15:30 88° 86° (E) 869 3.6 -27.9°
Enters shadow 19:15:40 85° 157° (SSE) 871 3.6 -27.9°
